Location: Feldbach
(47.2400°N, 8.7859°E)
Time: 06:37:23
(UTC+00:00)

Daily predictions for brighter satellites

Satellite Brightness Start Highest point End
(mag) Time Altitude Azimuth Time Altitude Azimuth Time Altitude Azimuth
FALCON 9 DEB 3.1 19:57:12 10° WSW 20:00:39 89° SE 20:04:05 10° ENE
Cosmos 292 Rocket 4.4 19:57:15 10° SSW 20:02:02 63° WNW 20:06:51 10° NNE
Cosmos 1455 Rocket 3.3 19:57:40 10° N 20:02:05 56° ENE 20:06:28 10° SSE
Okean 1 Rocket 4.1 19:58:44 10° NNW 20:02:57 47° W 20:07:10 10° SSW
Cosmos 2100 Rocket 4.3 19:57:09 10° N 20:03:27 59° ENE 20:09:40 10° SSE
USA 81 4.1 19:59:07 10° N 20:04:25 89° E 20:09:42 10° S
ERS-2 3.8 20:01:50 10° N 20:05:16 39° WNW 20:08:40 10° SW
ARIANE 5 R/B 3.6 20:01:43 10° SE 20:05:46 36° ENE 20:09:53 10° N
Meteor 2-20 Rocket 4.5 19:59:52 10° S 20:05:57 76° E 20:12:03 10° NNE
Cosmos 1315 Rocket 4.1 20:02:16 10° NNW 20:06:12 42° W 20:10:05 10° SSW
BREEZE-M DEB (TANK) 2.6 20:04:32 10° SW 20:06:48 42° SE 20:10:47 10° ENE
ATLAS 3B R/B 3.1 20:01:05 10° S 20:06:59 37° ESE 20:13:02 10° NE
Cosmos 1707 3.4 20:03:47 10° SSW 20:07:37 59° WNW 20:11:29 10° N
IGS 5A 3.7 20:04:46 10° S 20:08:55 75° WSW 20:13:06 10° NNW
NOSS 3-2 (C) 4.4 20:05:03 10° WSW 20:10:39 53° NW 20:17:12 10° NE
Cosmos 1461 3.1 20:06:52 10° NW 20:11:05 68° WSW 20:15:04 10° SSE
ATLAS CENTAUR R/B 1.9 20:09:28 10° NNW 20:13:43 56° NE 20:18:13 10° SE
Cosmos 2173 Rocket 4.1 20:10:06 10° N 20:16:30 69° E 20:22:49 10° SSE
Cosmos 405 4.3 20:13:59 10° NNE 20:16:56 25° ENE 20:19:49 10° SE
SL-8 R/B 4.0 20:12:57 10° WNW 20:17:39 55° SSW 20:22:20 10° SE
Cosmos 1452 Rocket 4.0 20:14:20 10° SSW 20:19:34 66° WNW 20:24:51 10° NNE
Cosmos 2016 Rocket 4.4 20:14:27 10° N 20:20:22 49° ENE 20:26:17 10° SSE
SL-4 R/B 3.7 20:18:31 10° SSE 20:20:44 14° SE 20:22:52 10° ESE
Cosmos 2219 Rocket 2.9 20:17:57 10° S 20:23:02 35° ESE 20:28:08 10° NE
Cosmos 2333 Rocket 2.7 20:18:57 10° S 20:24:18 42° ESE 20:29:40 10° NE
FALCON 9 DEB 3.4 20:23:15 10° SSW 20:26:10 37° SE 20:29:06 10° ENE
ERS-1 Rocket 3.5 20:24:08 10° SE 20:28:54 48° ENE 20:33:45 10° N
Cosmos 1025 Rocket 3.2 20:24:53 10° S 20:29:10 58° E 20:33:27 10° NNE
Geosat 4.4 20:24:37 10° SE 20:29:28 53° NE 20:34:22 10° NNW
Lacrosse 5 rocket 0.9 20:26:11 10° SW 20:29:53 86° SE 20:33:29 10° NE
Cosmos 1844 3.7 20:25:00 10° NNW 20:30:35 85° WSW 20:36:02 11° SSE
Cosmos 1536 Rocket 4.4 20:28:12 10° SSE 20:32:11 34° E 20:36:14 10° NNE
Spot 2 Rocket 3.5 20:28:37 10° SSE 20:33:39 76° ENE 20:38:45 10° NNW
Cosmos 1725 Rocket 4.3 20:28:44 10° N 20:34:49 54° ENE 20:40:27 12° SSE
Cosmos 1331 Rocket 4.0 20:31:22 10° SSW 20:36:37 84° ESE 20:41:56 10° NNE
Cosmos 1900 4.4 20:34:39 10° NW 20:39:33 72° WSW 20:43:50 13° SSE
DNEPR-1 R/B 3.5 20:35:37 10° NW 20:39:51 78° NE 20:43:36 14° SE
FALCON 9 DEB 2.7 20:38:41 10° SW 20:41:46 69° SSE 20:44:51 10° ENE
CENTAUR R/B 4.4 20:37:54 10° W 20:43:43 37° NNW 20:50:34 10° NE
CARTOSAT-1 3.6 20:40:17 11° SSE 20:44:22 87° ENE 20:48:42 10° NNW
Cosmos 2237 Rocket 3.8 20:41:58 12° SE 20:44:30 16° E 20:47:46 10° ENE
Terra 2.4 20:41:19 13° SE 20:45:15 46° ENE 20:49:49 10° N
SL-14 R/B 3.5 20:41:31 10° S 20:45:24 55° E 20:49:21 10° NNE
SPOT 1/Viking Rocket 4.0 20:41:18 10° S 20:46:22 61° WSW 20:51:29 10° NNW
Cosmos 2360 Rocket 2.6 20:41:38 10° SW 20:47:15 67° WNW 20:52:54 10° NNE
Cosmos 1674 3.6 20:43:53 10° SSW 20:47:29 47° WNW 20:51:05 10° N
CZ-2C R/B 4.2 20:43:16 10° N 20:48:02 70° WNW 20:52:46 10° SSW
FALCON 9 DEB 2.8 20:46:38 10° SW 20:49:43 63° SSE 20:52:49 10° ENE
Cosmos 1953 3.4 20:47:42 10° NNW 20:51:35 44° W 20:55:25 10° SSW
Cosmos 2322 Rocket 3.7 20:46:14 10° WSW 20:51:35 40° NW 20:56:58 10° NNE
SL-16 R/B 4.2 20:46:41 10° WSW 20:51:46 33° NW 20:56:53 10° NNE
FALCON 9 DEB 2.7 20:49:12 10° SW 20:52:18 79° SSE 20:55:26 10° ENE
SPOT 5 3.0 20:48:16 14° SSE 20:52:43 76° ENE 20:57:34 10° N
Cosmos 1455 4.5 20:51:00 10° NE 20:52:53 13° ENE 20:54:46 10° E
Cosmos 1975 Rocket 4.3 20:50:36 10° SSW 20:54:44 42° WNW 20:58:58 10° N
Cosmos 1802 Rocket 4.1 20:49:20 10° N 20:55:39 80° W 21:01:56 10° S
Meteor 1-24 Rocket 4.1 20:51:25 14° SSE 20:55:43 43° E 21:00:54 10° NNE
Cosmos 1459 Rocket 4.3 20:51:03 10° NNW 20:57:02 64° W 21:03:01 10° S
H-2A R/B 4.3 20:53:46 10° NNE 20:57:29 33° E 20:59:52 18° SSE
Cosmos 1302 Rocket 4.0 20:52:45 10° S 20:57:58 67° ESE 21:03:10 10° NNE
Cosmos 1300 2.6 20:59:53 10° N 21:03:42 76° E 21:06:20 19° SSE
Resurs 01 Rocket 3.9 21:02:26 10° SW 21:05:43 20° W 21:09:00 10° NW
USA 267 4.4 21:05:12 10° E 21:11:15 42° NNE 21:17:19 10° NW
Cosmos 1340 2.9 21:07:35 10° SSW 21:11:21 70° WNW 21:15:07 10° N
Cosmos 2322 3.8 21:09:13 10° SSW 21:14:52 83° WNW 21:20:34 10° NNE
COSMOS 2428 2.7 21:10:51 10° SSW 21:16:33 73° ESE 21:22:18 10° NNE
Cosmos 2278 Rocket 2.7 21:11:13 10° NNW 21:16:47 52° ENE 21:20:55 18° SE
Cosmos 1844 Rocket 4.0 21:12:34 10° NW 21:17:31 32° WSW 21:22:27 10° SSW
NOSS 0 Rocket 4.3 21:17:59 16° S 21:22:39 44° ESE 21:28:31 10° NE
Cosmos 389 Rocket 2.9 21:19:27 10° N 21:22:46 46° ENE 21:24:17 27° SE
Cosmos 1726 Rocket 4.4 21:20:19 10° N 21:24:31 38° ENE 21:26:53 21° SE
Cosmos 1867 3.6 21:19:42 10° NW 21:25:14 90° E 21:28:54 22° SE
Cosmos 968 Rocket 3.5 21:25:03 10° NNW 21:30:10 75° WSW 21:33:29 22° S
Cosmos 1626 4.2 21:31:22 10° SW 21:34:26 25° WNW 21:37:32 10° NNW
Cosmos 1486 Rocket 4.0 21:30:26 10° NNW 21:35:41 88° WSW 21:38:52 24° SSE
SJ 16-02 3.8 21:34:49 10° NNE 21:36:56 13° NE 21:39:02 10° E
Meteor 2-10 Rocket 3.4 21:34:29 10° NNW 21:39:35 89° ENE 21:42:36 24° S
Cosmos 1606 Rocket 3.6 21:35:46 10° N 21:40:15 69° E 21:42:32 28° SSE
Cosmos 2233 Rocket 4.1 21:34:57 10° NNW 21:41:07 77° W 21:45:35 20° S
Uosat 12 SS-18 rocket 4.3 21:36:54 10° SW 21:41:18 82° NW 21:46:26 10° NE
Cosmos 1992 Rocket 4.0 21:37:59 18° S 21:41:49 68° ESE 21:47:02 10° NNE
Cosmos 1943 Rocket 4.1 21:37:54 10° N 21:42:03 21° NE 21:46:12 10° E
ARIANE 5 R/B 4.3 21:38:34 10° SSW 21:42:16 27° W 21:46:07 10° NW
Cosmos 1892 Rocket 4.1 21:43:59 28° SE 21:45:51 43° E 21:50:06 10° NNE
Cosmos 1346 Rocket 2.8 21:47:04 25° SSW 21:49:19 88° W 21:53:23 10° N
Cosmos 1447 Rocket 4.4 21:44:53 18° S 21:49:36 87° E 21:55:48 10° N
Cosmos 1354 Rocket 4.2 21:46:38 10° NNW 21:51:59 67° ENE 21:55:00 26° SE
ATLAS CENTAUR R/B 3.3 21:48:57 10° WNW 21:52:19 22° WSW 21:54:30 16° SSW
Cosmos 1980 3.8 21:51:14 22° S 21:54:53 60° ESE 22:00:30 10° NNE
Cosmos 1441 Rocket 4.4 21:54:42 25° ESE 21:55:30 28° E 21:58:47 10° NNE
BREEZE-M DEB (TANK) 3.4 21:45:21 10° SW 21:56:19 50° SSE 21:59:46 10° E
ATLAS 3B R/B 3.3 21:50:59 10° WSW 21:57:25 56° NW 22:04:08 10° NE
SL-4 R/B 1.8 21:55:43 10° SW 21:59:48 63° SSE 22:03:35 10° ENE
ALOS 2 3.9 21:57:54 19° ESE 22:00:06 30° ENE 22:03:56 10° N
FALCON 9 DEB 4.2 21:58:51 10° W 22:01:52 43° NNW 22:04:53 10° NE
Cosmos 2219 Rocket 3.4 22:01:30 10° SW 22:06:54 43° NW 22:12:18 10° NNE
Cosmos 2333 Rocket 3.7 22:03:20 10° WSW 22:08:38 37° NW 22:13:57 10° NNE
Cosmos 1607 4.0 22:02:46 10° NW 22:09:13 82° SW 22:12:53 27° SSE
Lacrosse 5 rocket 3.6 22:06:19 10° WNW 22:09:20 24° NNW 22:12:19 10° NE
Cosmos 1703 3.9 22:08:43 34° SE 22:09:43 40° E 22:13:27 10° NNE
Cosmos 2228 3.8 22:07:40 10° NNW 22:11:53 46° W 22:14:06 25° SSW
Iridium 2 3.6 22:12:19 38° SSW 22:13:41 80° W 22:17:26 10° N
Meteor 2-1 Rocket 4.2 22:13:54 10° N 22:19:27 77° ENE 22:22:14 31° SSE
USA 215 3.3 22:13:11 10° ENE 22:19:37 56° SE 22:25:28 13° SSW
Terra 3.6 22:20:12 13° SW 22:23:13 23° W 22:26:59 10° NW
COBE Rocket 4.0 22:22:10 31° SSE 22:24:29 67° ENE 22:29:22 10° N
SL-16 R/B 2.9 22:23:55 28° SE 22:25:47 36° ESE 22:30:55 10° NE
Cosmos 2237 Rocket 2.2 22:23:44 20° SSW 22:27:47 84° WNW 22:33:27 10° NNE
Cosmos 1455 2.6 22:25:06 10° NNW 22:28:50 54° W 22:29:59 37° SSW
Cosmos 1184 Rocket 2.8 22:29:49 52° SW 22:30:27 71° WNW 22:33:41 10° N
Cosmos 1464 Rocket 4.0 22:24:33 10° N 22:30:58 85° W 22:34:26 29° S
Cosmos 1328 4.3 22:31:00 39° SE 22:31:46 44° E 22:35:30 10° NNE
Cosmos 2369 Rocket 3.9 22:31:26 10° N 22:36:20 28° NE 22:41:12 10° ESE
Cosmos 192 4.3 22:33:47 28° SSW 22:36:26 83° WNW 22:41:24 10° NNE
GEOS 3 Rocket 3.6 22:38:08 31° SSE 22:40:50 79° SW 22:46:13 10° NW
ATLAS CENTAUR R/B 3.3 22:40:44 25° SSW 22:43:58 69° SE 22:56:31 10° NE
Cosmos 1816 Rocket 4.4 22:47:50 32° S 22:50:51 75° E 22:56:59 10° NNE
USA 32 4.3 22:45:57 10° N 22:51:09 60° E 22:53:23 33° SSE
Aureole 3 4.4 22:47:54 10° N 22:51:35 39° ENE 22:53:19 28° ESE
USA 267 3.4 22:47:16 10° ESE 22:53:48 77° NNE 23:00:21 10° NW
Okean 1-7 Rocket 3.8 22:54:15 34° SSW 22:56:02 63° WNW 23:00:27 10° N
Cosmos 1812 Rocket 3.8 22:53:38 10° N 22:57:58 61° ENE 22:59:21 39° SE
BREEZE-M DEB (TANK) 3.3 22:56:39 10° W 23:00:09 70° N 23:10:41 10° E
Cosmos 2278 Rocket 3.5 22:55:50 10° NW 23:00:33 28° WSW 23:02:45 21° SW
Cosmos 2058 Rocket 4.1 22:58:50 10° NNW 23:02:52 35° W 23:04:24 27° SW
Cosmos 2297 3.7 22:57:46 10° NNW 23:03:27 86° ENE 23:06:10 32° SSE
Cosmos 2034 Rocket 4.1 23:00:56 10° NNW 23:07:02 65° W 23:10:01 31° SSW
NOSS 2-3 (C) 3.9 23:07:21 40° SE 23:07:51 42° ESE 23:12:17 10° NE
Thor Agena Rocket 4.0 23:02:50 10° NNE 23:07:56 49° E 23:09:46 34° SSE
SAR-Lupe-2 3.5 23:05:31 10° NNE 23:09:06 68° ESE 23:09:33 59° SSE
SJ 16-02 1.2 23:11:46 10° NNW 23:16:11 88° WSW 23:17:28 46° SSE
Cosmos 1174 4.4 23:14:18 31° SSW 23:17:03 83° ESE 23:21:44 10° NE
Meteor 1-11 4.1 23:19:57 36° S 23:22:24 87° E 23:28:01 10° NNE
Meteor 1-27 4.3 23:19:03 10° N 23:24:37 71° ENE 23:27:14 32° SSE
GP-B 3.0 23:20:12 10° N 23:24:41 86° E 23:26:01 45° S
Meteor 1-4 Rocket 3.4 23:23:10 10° NNW 23:26:21 34° W 23:26:36 34° WSW
Cosmos 1943 Rocket 2.1 23:20:56 10° NNW 23:26:29 81° WSW 23:28:53 35° SSE
Cosmos 1825 Rocket 4.0 23:25:14 38° SE 23:26:30 50° E 23:30:49 10° NNE
Nimbus 7 Rocket 4.4 23:20:35 10° NNE 23:26:40 85° WNW 23:29:47 31° SSW
Cosmos 1892 3.2 23:30:16 41° SE 23:31:00 47° E 23:34:45 10° NNE
MTI 4.2 23:29:18 10° N 23:32:16 48° WNW 23:32:27 47° W
ALOS 2 3.7 23:35:17 27° WSW 23:36:23 31° W 23:40:18 10° NNW
Cosmos 1869 3.6 23:32:52 10° N 23:36:57 62° E 23:38:08 41° SE
CZ-2D R/B 4.3 23:35:02 10° ENE 23:37:27 13° E 23:39:52 10° ESE
Tsikada Rocket 4.2 23:34:13 28° SSW 23:37:29 62° WNW 23:43:36 10° N
Cosmos 1943 4.1 23:36:45 27° SE 23:38:41 34° ESE 23:43:44 10° NE
SL-4 R/B 2.8 23:35:40 10° W 23:39:30 47° NNW 23:43:03 10° ENE
Cosmos 990 Rocket 4.1 23:35:01 10° NNW 23:40:12 70° ENE 23:42:50 29° SE
Lacrosse 4 Rocket 4.0 23:37:42 10° N 23:40:33 18° NE 23:43:21 10° E
USA 229 DEB 3.6 23:38:46 32° SSW 23:41:51 66° SE 23:48:37 10° NE
USA 229 3.6 23:38:53 32° SSW 23:41:58 65° ESE 23:48:44 10° NE
EO 1 Del DPAF 3.8 23:38:28 10° NNE 23:42:02 42° E 23:42:38 39° SE
NOSS 8 (F) 4.0 23:43:55 78° ESE 23:43:55 78° ESE 23:46:51 10° NE
Cosmos 1603 4.3 23:46:12 30° SSE 23:48:19 42° ESE 23:53:37 10° NE
Lacrosse 5 rocket 4.1 23:46:54 10° NW 23:49:24 17° N 23:51:54 10° NE
NOSS 3-1 (C) 3.3 23:46:44 25° SW 23:50:03 77° NW 23:56:26 10° NE
Cosmos 1953 Rocket 3.8 23:50:42 40° SSE 23:52:01 61° E 23:56:23 10° NNE
SL-16 R/B 4.1 23:47:36 10° ESE 23:52:50 30° ENE 23:58:03 10° N
Cosmos 1408 2.6 23:53:09 56° SSE 23:53:47 72° E 23:57:28 10° NNE
Cosmos 1825 2.9 23:54:28 36° SE 23:55:17 41° E 23:58:52 10° NNE
USA 306 4.4 23:56:43 21° ESE 23:56:43 21° ESE 23:59:34 10° E
